Location: Ch�teauneuf
(46.0257°N, 2.8959°E)
Time: 02:24:04
(UTC+00:00)

Daily predictions for brighter satellites

Satellite Brightness Start Highest point End
(mag) Time Altitude Azimuth Time Altitude Azimuth Time Altitude Azimuth
Cosmos 2344 3.9 02:37:40 58° ENE 02:37:40 58° ENE 02:44:07 10° NE
Cosmos 1980 Rocket 4.5 02:54:36 12° N 02:58:06 19° NE 03:02:05 10° E
USA 234 3.9 02:54:21 10° NE 02:59:22 48° NNE 02:59:22 48° NNE
ADEOS Rocket 4.0 02:56:50 10° SE 03:01:50 38° ENE 03:06:59 10° N
IDEFIX/ARIANE 42P 4.5 03:17:12 10° N 03:18:52 21° N 03:18:52 21° N
MSX 4.3 03:27:50 10° NNE 03:32:03 50° N 03:32:03 50° N
Cosmos 1833 Rocket 3.5 03:33:50 36° SSE 03:35:35 49° ESE 03:41:01 10° NE
CZ-4B R/B 4.1 03:33:47 10° ESE 03:36:17 19° ENE 03:37:08 17° NE
Cosmos 1626 4.2 03:39:54 25° ESE 03:40:21 26° E 03:43:27 10° NNE
NOSS 3-2 (C) 3.4 03:43:22 68° NNW 03:43:22 68° NNW 03:49:39 10° NE
CENTAUR R/B 2.4 03:50:12 65° WNW 03:50:31 66° NW 03:57:40 10° NE
Cosmos 2369 4.0 03:49:30 23° NNW 03:53:06 63° ENE 03:58:41 10° SE
Cosmos 1656 4.1 03:55:16 46° S 03:55:16 46° S 03:59:19 10° SSE
Cosmos 2082 Rocket 3.3 03:53:18 10° S 03:58:32 42° ESE 04:03:48 10° NE
Cosmos 1461 3.8 03:57:50 42° SSE 03:58:50 50° ESE 04:03:23 10° NE
SL-16 R/B 4.5 04:02:04 10° N 04:06:12 20° NE 04:10:21 10° E
PSLV R/B 3.9 04:02:05 10° N 04:05:31 56° N 04:05:31 56° N
USA 290 4.1 04:06:41 26° SE 04:07:24 29° ESE 04:10:16 10° NE
CZ-2C R/B 2.2 04:03:05 10° N 04:08:05 79° WNW 04:08:51 62° SW
ISS -2.5 04:09:06 41° ENE 04:09:06 41° ENE 04:11:28 10° ENE
Lacrosse 4 Rocket 2.5 04:18:22 30° N 04:18:22 30° N 04:20:54 10° NNE
Cosmos 1697 Rocket 2.6 04:16:50 26° NW 04:20:04 72° WSW 04:25:41 10° SSE
Meteor 1-31 Rocket 4.0 04:18:53 10° NNE 04:22:40 43° E 04:26:25 10° S
COSMOS 2406 3.2 04:21:37 44° WSW 04:23:11 59° WNW 04:28:48 10° NNE
[s.n.46727] 4.0 04:25:26 38° E 04:25:26 38° E 04:27:27 10° ENE
[s.n.46723] 3.9 04:25:27 40° E 04:25:27 40° E 04:27:35 10° ENE
[s.n.46707] 4.0 04:25:36 38° E 04:25:36 38° E 04:27:38 10° ENE
[s.n.46708] 4.0 04:25:41 38° E 04:25:41 38° E 04:27:44 10° ENE
[s.n.46719] 4.0 04:25:47 39° E 04:25:47 39° E 04:27:49 10° ENE
[s.n.46724] 3.9 04:25:52 39° E 04:25:52 39° E 04:27:54 10° ENE
[s.n.46687] 3.9 04:25:57 39° E 04:25:57 39° E 04:28:00 10° ENE
[s.n.46696] 3.9 04:26:02 39° E 04:26:02 39° E 04:28:05 10° ENE
[s.n.46720] 3.9 04:26:07 39° E 04:26:07 39° E 04:28:11 10° ENE
[s.n.46676] 3.9 04:26:12 39° E 04:26:12 39° E 04:28:16 10° ENE
Lacrosse 5 rocket 1.0 04:25:46 68° NNW 04:25:46 68° NNW 04:29:22 10° NE
[s.n.46721] 3.9 04:26:18 39° E 04:26:18 39° E 04:28:22 10° ENE
[s.n.46728] 3.9 04:26:23 40° E 04:26:23 40° E 04:28:27 10° ENE
[s.n.46690] 3.9 04:26:28 40° E 04:26:28 40° E 04:28:33 10° ENE
[s.n.46694] 3.9 04:26:32 40° E 04:26:32 40° E 04:28:36 10° ENE
[s.n.46702] 3.9 04:26:39 40° E 04:26:39 40° E 04:28:44 10° ENE
[s.n.46679] 3.9 04:26:42 40° E 04:26:42 40° E 04:28:48 10° ENE
[s.n.46704] 3.8 04:26:44 42° E 04:26:44 42° E 04:28:55 10° ENE
[s.n.46712] 3.9 04:26:50 40° E 04:26:50 40° E 04:28:56 10° ENE
[s.n.46711] 3.8 04:26:59 41° E 04:26:59 41° E 04:29:04 10° ENE
[s.n.46684] 3.8 04:27:01 41° E 04:27:01 41° E 04:29:07 10° ENE
[s.n.46706] 3.8 04:27:09 41° E 04:27:09 41° E 04:29:15 10° ENE
[s.n.46678] 3.8 04:27:07 43° E 04:27:07 43° E 04:29:20 10° ENE
[s.n.46677] 3.8 04:27:17 41° E 04:27:17 41° E 04:29:23 10° ENE
[s.n.46671] 3.8 04:27:22 41° E 04:27:22 41° E 04:29:29 10° ENE
[s.n.46675] 3.8 04:27:27 41° E 04:27:27 41° E 04:29:35 10° ENE
[s.n.46674] 3.8 04:27:32 42° E 04:27:32 42° E 04:29:40 10° ENE
Meteor 2-5 Rocket 3.8 04:21:20 10° S 04:27:02 85° E 04:32:54 10° NNE
[s.n.46698] 3.8 04:27:38 42° E 04:27:38 42° E 04:29:46 10° ENE
[s.n.46699] 3.7 04:27:39 43° ESE 04:27:39 43° ESE 04:29:52 10° ENE
[s.n.46715] 3.8 04:27:48 42° E 04:27:48 42° E 04:29:57 10° ENE
[s.n.46714] 3.8 04:27:53 42° E 04:27:53 42° E 04:30:02 10° ENE
[s.n.46726] 3.7 04:27:59 42° E 04:27:59 42° E 04:30:07 10° ENE
[s.n.46703] 3.7 04:28:04 42° E 04:28:04 42° E 04:30:13 10° ENE
[s.n.46713] 3.7 04:28:09 43° E 04:28:09 43° E 04:30:19 10° ENE
[s.n.46717] 3.7 04:28:14 43° E 04:28:14 43° E 04:30:24 10° ENE
[s.n.46691] 3.7 04:28:16 45° ESE 04:28:16 45° ESE 04:30:30 10° ENE
[s.n.46693] 3.7 04:28:25 43° E 04:28:25 43° E 04:30:35 10° ENE
[s.n.46672] 3.7 04:28:30 43° E 04:28:30 43° E 04:30:40 10° ENE
[s.n.46701] 3.7 04:28:35 43° E 04:28:35 43° E 04:30:46 10° ENE
[s.n.46685] 3.7 04:28:41 44° E 04:28:41 44° E 04:30:51 10° ENE
[s.n.46709] 3.7 04:28:45 44° E 04:28:45 44° E 04:30:57 10° ENE
[s.n.46683] 3.7 04:28:50 44° E 04:28:50 44° E 04:31:01 10° ENE
[s.n.46695] 3.6 04:28:55 44° E 04:28:55 44° E 04:31:07 10° ENE
[s.n.46688] 3.6 04:29:02 44° E 04:29:02 44° E 04:31:14 10° ENE
[s.n.46729] 3.6 04:29:06 45° E 04:29:06 45° E 04:31:18 10° ENE
[s.n.46697] 3.6 04:29:09 45° E 04:29:09 45° E 04:31:21 10° ENE
[s.n.46725] 3.6 04:29:14 45° E 04:29:14 45° E 04:31:26 10° ENE
[s.n.46682] 3.6 04:29:19 45° E 04:29:19 45° E 04:31:32 10° ENE
[s.n.46680] 3.6 04:29:25 45° E 04:29:25 45° E 04:31:38 10° ENE
[s.n.46718] 3.6 04:29:30 45° E 04:29:30 45° E 04:31:43 10° ENE
[s.n.46710] 3.6 04:29:35 45° E 04:29:35 45° E 04:31:48 10° ENE
[s.n.46673] 3.6 04:29:46 46° E 04:29:46 46° E 04:31:59 10° ENE
[s.n.46700] 3.6 04:29:51 46° E 04:29:51 46° E 04:32:05 10° ENE
[s.n.46705] 3.6 04:29:56 46° E 04:29:56 46° E 04:32:10 10° ENE
[s.n.46692] 3.5 04:30:02 46° ESE 04:30:02 46° ESE 04:32:17 10° ENE
[s.n.46686] 3.5 04:30:07 47° ESE 04:30:07 47° ESE 04:32:22 10° ENE
[s.n.46716] 3.5 04:30:12 47° ESE 04:30:12 47° ESE 04:32:28 10° ENE
[s.n.46722] 3.5 04:30:17 47° ESE 04:30:17 47° ESE 04:32:33 10° ENE
[s.n.46689] 3.5 04:30:23 47° ESE 04:30:23 47° ESE 04:32:39 10° ENE
[s.n.46681] 3.5 04:30:28 47° ESE 04:30:28 47° ESE 04:32:44 10° ENE
FENGYUN 3A 3.8 04:24:40 10° NNE 04:30:08 76° ESE 04:35:34 10° S
USA 238 DEB 4.4 04:28:30 30° WNW 04:30:17 35° NNW 04:36:36 10° NNE
USA 238 4.4 04:28:35 30° WNW 04:30:22 35° NNW 04:36:42 10° NNE
NOSS 3-2 (A) 4.4 04:31:50 27° NW 04:33:21 30° NNW 04:39:15 10° NNE
PAYLOAD A 4.4 04:29:44 10° N 04:34:32 42° WNW 04:35:51 36° WSW
SAR-Lupe-4 3.8 04:33:53 10° SSE 04:37:26 71° ENE 04:41:01 10° N
ATLAS 3B R/B 2.5 04:32:59 15° SW 04:38:39 89° NW 04:45:21 10° NE
ERS-2 2.1 04:35:45 10° S 04:39:16 52° WSW 04:39:16 52° WSW
Cosmos 1726 Rocket 3.5 04:35:23 10° N 04:39:52 89° ENE 04:44:20 10° S
Cosmos 967 Rocket 4.4 04:37:13 17° NW 04:42:11 66° WSW 04:48:21 10° SSE
Cosmos 1980 Rocket 2.1 04:37:14 10° NNW 04:42:52 87° WSW 04:48:28 10° SSE
USA 234 4.2 04:37:14 10° NE 04:43:02 35° N 04:46:42 20° WNW
Abrixas rocket 1.8 04:43:59 70° SSW 04:43:59 70° SSW 04:46:45 10° ESE
ATLAS CENTAUR R/B 4.4 04:42:45 10° SE 04:44:46 14° ESE 04:46:45 10° E
Cosmos 2228 3.0 04:40:40 10° NNW 04:44:59 59° W 04:49:17 10° S
Meteor 2-13 Rocket 4.3 04:39:13 10° SSW 04:45:21 78° W 04:51:32 10° N
Cosmos 1092 Rocket 3.9 04:40:09 10° S 04:46:20 86° W 04:52:36 10° N
Geosat 4.0 04:41:48 10° SSE 04:46:43 56° WSW 04:51:09 13° NW
ADEOS Rocket 3.3 04:42:38 10° SSW 04:47:29 32° W 04:52:27 10° NNW
Nadezhda 4 Rocket 4.1 04:44:44 10° SSW 04:50:39 51° WNW 04:56:39 10° N
ADEOS 3.5 04:45:58 10° N 04:51:11 71° WNW 04:56:22 10° SSW
Cosmos 2344 4.3 04:47:42 23° WNW 04:51:26 36° NNW 04:59:12 10° NE
CZ-3 R/B 4.1 04:35:59 14° WSW 04:53:17 34° SSW 05:00:40 10° SE
Aureole 3 3.8 04:49:15 10° N 04:53:26 84° E 04:58:47 10° S
SAR-Lupe-1 3.9 04:51:45 10° S 04:55:19 75° WSW 04:58:55 10° NNW
Cosmos 1606 Rocket 3.7 04:51:20 10° NNW 04:55:40 49° W 04:59:59 10° SSW
Cosmos 1400 Rocket 2.6 04:52:25 10° NNW 04:56:21 70° W 05:00:13 10° S
CZ-4B R/B 3.8 04:52:39 10° N 04:56:53 76° WNW 05:00:52 10° SSW
TELKOM 3 3.8 05:01:47 31° W 05:03:12 75° NNW 05:07:08 10° ENE
COSMO-SKYMED 1 2.5 05:01:14 10° SSE 05:05:35 82° WSW 05:09:56 10° NNW
CZ-4B R/B 2.3 05:05:17 10° SSW 05:08:21 29° W 05:10:16 18° NW
Cosmos 1300 3.2 05:06:18 10° NNW 05:09:50 36° W 05:13:21 10° SSW
ARGOS Delta rocket 4.1 05:04:53 10° N 05:10:18 73° WNW 05:15:45 10° SSW
Cosmos 1627 Rocket 4.5 05:04:36 10° SSW 05:10:59 72° W 05:17:22 10° N
ALOS 2.6 05:08:24 10° N 05:12:50 43° WNW 05:17:14 10° SW
Cosmos 2278 3.9 05:07:48 10° NW 05:13:15 49° WSW 05:18:39 10° S
Meteor 2-10 Rocket 3.6 05:09:34 10° N 05:14:36 77° ENE 05:19:42 10° SSE
Cosmos 2322 Rocket 3.3 05:09:21 10° NNW 05:14:48 45° NE 05:20:12 10° SE
Cosmos 1689 Rocket 2.0 05:12:06 10° S 05:14:58 56° WSW 05:17:52 10° NNW
Cosmos 1626 3.3 05:14:34 20° W 05:15:34 22° WNW 05:18:32 10° NNW
SL-14 R/B 4.1 05:12:13 10° SW 05:15:44 29° WNW 05:19:18 10° NNW
Cosmos 1833 Rocket 3.5 05:15:37 14° WSW 05:19:44 31° NW 05:24:44 10° N
Meteor 2-8 Rocket 4.4 05:14:13 10° NNW 05:20:23 75° W 05:26:30 10° S
MOS 1 Rocket 4.4 05:16:51 10° SE 05:20:53 42° ENE 05:24:57 10° N
deb Chang Zheng 4 4.0 05:18:56 10° N 05:22:51 37° WNW 05:26:46 10° SW
Cosmos 2084 3.5 05:19:50 10° SW 05:24:08 67° NW 05:28:33 10° NE
METEOR-M 4.4 05:20:44 10° N 05:25:50 46° WNW 05:30:54 10° SW
H-2A R/B 3.7 05:23:41 10° NNE 05:27:56 47° E 05:32:01 10° S
Cosmos 1315 Rocket 2.9 05:24:02 10° N 05:28:10 90° E 05:32:18 10° S
SJ-12 4.1 05:24:39 10° N 05:28:40 51° WNW 05:32:38 10° SSW
SL-19 R/B 4.4 05:27:35 10° N 05:30:05 28° WNW 05:32:37 10° SW
Cosmos 2058 Rocket 3.4 05:25:54 10° NNW 05:30:11 43° W 05:34:23 10° SSW
Elektron 1 4.3 05:27:38 12° WSW 05:30:14 38° NW 05:33:05 10° NNE
Okean 1-7 Rocket 3.8 05:25:58 10° SSW 05:30:23 52° WNW 05:34:49 10° N
SL-27 R/B 4.1 05:28:04 10° S 05:31:27 40° ESE 05:34:53 10° NE
Cosmos 1484 Rocket 3.9 05:29:03 10° NNW 05:32:05 22° WNW 05:35:04 10° WSW
ASTRO F (AKARI) 4.4 05:28:59 10° N 05:32:29 65° WNW 05:35:48 10° SSW
H-2A R/B 3.0 05:30:56 10° NNE 05:34:46 75° ESE 05:38:37 10° S
Cosmos 1553 Rocket 3.9 05:31:30 10° NNW 05:37:35 71° W 05:43:36 10° S
Cosmos 1461 4.2 05:34:16 10° W 05:38:12 28° NW 05:42:18 10° NNE
Meteor 1-24 Rocket 4.4 05:33:44 10° SW 05:38:50 34° WNW 05:44:09 10° N
Cosmos 1892 Rocket 4.3 05:35:14 10° SW 05:39:04 30° WNW 05:42:57 10° N
Meteor PRIRODA 3.9 05:37:45 10° N 05:41:16 45° WNW 05:44:46 10° SW
USA 290 3.8 05:39:39 10° W 05:41:53 17° WNW 05:44:08 10° NNW
Cosmos 2082 Rocket 2.8 05:37:38 10° WSW 05:42:42 34° NW 05:47:49 10° NNE
CENTAUR R/B 3.9 05:37:24 10° WNW 05:42:42 25° NNW 05:48:49 10° NE
CREW DRAGON DEMO-1 DEB 2.8 05:40:30 11° WNW 05:43:25 76° SSW 05:46:24 10° SE
Cosmos 614 Rocket 4.1 05:39:23 10° SW 05:44:26 55° WNW 05:49:29 10° NNE
ISS -2.8 05:42:04 11° W 05:45:06 35° NNW 05:48:14 10° ENE
SJ-7 4.4 05:41:21 10° NNE 05:45:24 86° ESE 05:49:23 10° SSW
CZ-2C R/B 4.2 05:43:34 10° NNW 05:45:25 12° NW 05:47:15 10° WNW
Cosmos 2026 Rocket 4.4 05:41:51 10° SW 05:47:48 41° WNW 05:53:49 10° N
CZ-4B DEB 4.5 05:44:35 10° NNE 05:50:07 78° ESE 05:55:35 10° SSW
SL-16 R/B 2.2 05:45:21 10° NNW 05:51:04 84° WSW 05:56:44 10° SSE
Cosmos 2251 Rocket 4.4 05:47:44 10° WSW 05:52:19 28° WNW 05:56:54 10° N
Meteor 2-15 4.5 05:48:06 10° NNW 05:54:05 62° W 06:00:03 10° S
